sat.trackr.live / text

‹ back to catalog

STARLINK-31257

NORAD 59079 · 2024-041F

PAYLOAD ACTIVE UNKNOWN

§ Identity

Operator
Country
US
Launch date
2024-02-29
Launch site
AFETR
Launch vehicle
Mass (kg)
RCS (m²)

Purposes: comms

External: N2YO · Heavens-Above · Gunter

§ Orbital elements

Epoch: 2026-09-20T02:04:35.487840Z

Period
94.27 min
Inclination
43.0035°
Eccentricity
0.0001271
Mean motion
15.27577437 rev/d
Perigee alt
482.2 km
Apogee alt
483.9 km
Semi-major
6,861.2 km
B*
2.8943e-5
RAAN
292.7130°
Arg perigee
253.0300°
Mean anomaly
107.0412°
Rev number
14,400

§ Raw data

STARLINK-312571 59079U 24041F   26263.08652185  .00000534  00000+0  28943-4 0  99962 59079  43.0035 292.7130 0001271 253.0300 107.0412 15.27577437144007

JSON: /api/v1/satellites/59079 · /tle

For live sub-satellite position, see the globe view (requires WebGL).

§ Visibility from observer

Set your observer location to see the next 7 days of passes ≥ 10°. The values pass through the URL so the page stays shareable.

No JS? Fill the form by hand. The geolocation button needs JavaScript.